Location: Champignolles
(47.0543°N, 4.5663°E)
Time: 14:35:14
(UTC+00:00)

USA 215 - Pass Details

Date: 30 November 2020
Orbit: 1099 x 1109 km, 123.0° (Epoch: 22 January)

Event Time Altitude Azimuth Distance (km) Brightness Sun altitude
Exits shadow 19:31:10 60° 290° (WNW) 1,252 3.6 -36.1°
Drops below altitude 10° 19:36:42 10° 251° (WSW) 2,956 6.1 -37.0°
Sets 19:39:11 0° 249° (WSW) 3,911 6.9 -37.5°
